Home   Weather   Worcester   Past weeks

Flag for United Kingdom Past Weather in Worcester, England, United Kingdom — Yesterday and Last 2 Weeks

Now
68 °F

Passing clouds.


Feels Like: 68 °F
Forecast: 50 / 71 °F
Wind: 6 mph from Northwest

Location: Staverton Private

Current Time: Aug 31, 2016 at 10:53:00 PM

Latest Report: Aug 31, 2016 at 7:20 PM


Visibility: N/A

Pressure: 30.15 "Hg

Humidity: 60%

Dew Point: 54 °F

Location of WorcesterLocation

Past Weather in Worcester — Graph

°F

Worcester Temperature Yesterday

Maximum temperature yesterday: 75 °F (at 3:20 PM)
Minimum temperature yesterday: 52 °F (at 6:50 AM)
Average temperature yesterday: 68 °F

High & Low Weather Summary for the Past Weeks

 TemperatureHumidityPressure
High84 °F (Aug 23, 2:20 PM)100% (Aug 25, 6:50 AM)30.30 "Hg (Aug 25, 6:50 AM)
Low52 °F (Aug 30, 6:50 AM)34% (Aug 18, 5:20 PM)29.56 "Hg (Aug 19, 4:50 PM)
Average68 °F73%30.01 "Hg
* Reported Aug 16 7:20 PM — Aug 31 7:20 PM, Worcester, Weather by CustomWeather, © 2016

Note: Actual official high and low records may vary slightly from our data, if they occured in-between our weather recording intervals... More about our weather records

Advertising

Worcester Weather History for the Previous 24 Hours

Scroll right to see more
 ConditionsComfort  
Time TempWeatherWind HumidityBarometerVisibility
7:20 PM
Wed, Aug 31
68 °FPassing clouds.6 mph60%30.15 "HgN/A
6:50 PM70 °FPassing clouds.7 mph53%30.12 "HgN/A
6:20 PM70 °FPassing clouds.9 mph57%30.12 "HgN/A
5:50 PM70 °FPassing clouds.10 mph60%30.12 "HgN/A
5:20 PM72 °FPassing clouds.10 mph61%30.12 "HgN/A
4:50 PM73 °FPassing clouds.12 mph57%30.12 "HgN/A
4:20 PM72 °FPassing clouds.13 mph69%30.12 "HgN/A
3:50 PM72 °FPassing clouds.13 mph69%30.12 "HgN/A
3:20 PM72 °FPassing clouds.12 mph69%30.12 "HgN/A
2:50 PM70 °FScattered clouds.10 mph73%30.12 "HgN/A
2:20 PM72 °FScattered clouds.13 mph73%30.12 "HgN/A
1:50 PM68 °FScattered clouds.12 mph78%30.12 "HgN/A
1:20 PM68 °FScattered clouds.12 mph78%30.12 "HgN/A
12:50 PM66 °FScattered showers. Scattered clouds.13 mph83%30.12 "HgN/A
12:20 PM68 °FScattered showers. Scattered clouds.14 mph78%30.12 "HgN/A
11:50 AM68 °FScattered showers. Scattered clouds.12 mph78%30.12 "HgN/A
11:20 AM66 °FScattered showers. Scattered clouds.10 mph78%30.12 "HgN/A
10:50 AM64 °FScattered clouds.9 mph83%30.12 "HgN/A
10:20 AM64 °FScattered clouds.9 mph83%30.12 "HgN/A
9:50 AM64 °FScattered clouds.12 mph83%30.12 "HgN/A
9:20 AM64 °FBroken clouds.9 mph83%30.12 "HgN/A
8:50 AM63 °FScattered clouds.7 mph88%30.12 "HgN/A
8:20 AM61 °FScattered clouds.8 mph88%30.12 "HgN/A
7:50 AM61 °FScattered clouds.7 mph88%30.09 "HgN/A
7:20 AM61 °FPassing clouds.7 mph88%30.12 "HgN/A
6:50 AM61 °FPassing clouds.5 mph88%30.12 "HgN/A
Weather by CustomWeather, © 2016

See weather overviewHow to use our weather pages